Wind_Speed
13 11 8 7 6 4 3 2 1 4 6 7 8 8 9 9 9 9 9 10 10 11 9 12 14 19 22 24 28 31 31 34 39 43 47 38 36 39 39 39 39 39 39
14 11 10 8 6 4 2 1 3 4 6 7 8 8 8 8 7 5 5 6 9 11 14 16 19 22 26 28 27 29 32 35 35 36 45 51 45 41 41 42 43 42 42
15 12 11 9 6 4 2 1 3 5 6 7 8 8 7 7 7 8 7 8 9 11 13 17 21 23 25 27 30 30 31 30 28 28 30 38 51 53 46 44 46 46 45
15 13 11 8 6 4 2 1 3 4 5 6 7 7 7 7 6 6 7 9 9 11 14 18 21 24 25 25 27 31 31 26 26 27 29 34 40 52 58 48 45 48 49
16 14 11 8 6 4 2 3 4 4 5 6 7 6 5 4 5 8 10 11 14 18 21 23 25 26 26 23 21 22 26 29 31 32 34 35 39 44 54 58 51 48 49
16 14 12 10 6 4 3 3 4 5 6 6 6 4 2 1 4 15 10 13 16 18 20 22 21 21 18 20 21 22 25 28 32 33 32 32 34 36 39 53 59 54 48
17 14 12 9 7 4 2 3 3 4 3 4 5 3 2 1 6 13 12 16 16 15 14 15 15 14 20 23 23 25 29 29 31 28 27 29 34 33 35 36 51 60 58
17 14 12 9 6 4 3 3 3 4 5 6 7 5 1 3 4 3 8 17 15 12 12 14 16 19 22 23 24 25 29 31 32 31 28 27 27 30 34 33 36 49 59
17 14 12 9 6 4 3 2 3 4 6 7 9 7 3 3 12 4 11 16 11 10 12 15 16 16 19 21 24 25 30 32 31 29 28 24 23 25 28 31 33 35 47
18 15 12 9 7 5 3 1 3 5 7 8 9 9 6 4 5 6 9 14 11 9 9 11 17 19 19 21 24 27 32 35 32 30 27 25 22 20 22 25 29 32 34
19 16 13 10 7 5 2 0 3 4 6 8 9 9 8 8 9 4 8 16 9 7 8 9 16 21 23 21 26 29 33 36 34 32 25 24 21 22 22 26 25 26 31
19 17 13 11 8 6 3 1 2 4 6 7 9 9 9 8 7 5 7 15 11 7 9 9 16 23 23 22 25 28 31 34 34 31 26 21 20 19 19 23 28 24 26
21 17 14 10 9 6 3 2 1 2 5 5 6 7 9 9 8 7 8 9 11 10 8 7 15 19 21 23 24 27 28 31 33 30 27 22 16 16 10 14 17 22 26
20 17 14 12 9 7 4 2 1 1 3 4 5 7 8 7 8 6 6 9 11 6 11 10 18 18 20 21 24 24 26 27 29 28 27 23 16 11 8 7 12 17 11
20 15 13 12 10 7 5 4 1 0 1 3 4 5 6 6 6 5 5 5 5 6 10 10 17 20 19 20 21 23 23 23 22 26 27 28 23 21 9 5 8 10 9
18 15 15 13 8 7 7 4 3 2 0 1 2 3 4 4 5 6 6 5 3 5 6 12 15 18 16 17 19 21 23 23 20 22 24 26 27 24 21 13 5 4 7
17 17 17 10 9 8 8 6 5 3 2 2 1 2 3 3 3 5 6 4 4 5 5 7 13 13 13 11 14 18 21 26 26 26 25 24 23 24 21 19 18 16 22
19 18 12 12 12 10 9 8 6 5 4 3 1 0 2 2 3 6 7 6 5 4 6 6 10 9 12 13 14 15 19 22 25 26 26 25 24 23 20 18 15 16 19
18 18 12 15 13 12 10 9 8 6 6 5 4 2 1 3 4 6 7 8 6 6 7 7 8 8 10 11 13 11 14 19 22 24 24 24 25 26 25 22 23 18 13
21 14 17 15 13 12 11 10 8 8 8 6 5 4 3 2 4 6 7 7 7 7 6 6 6 6 8 9 12 11 10 14 19 22 25 26 25 26 25 26 29 28 23
19 18 19 15 14 12 11 10 10 9 8 8 6 5 4 3 3 4 6 6 8 8 6 6 6 6 6 7 12 15 13 9 14 20 23 26 26 26 30 26 27 29 29
21 20 16 14 13 13 13 12 11 10 9 8 7 6 4 3 2 3 4 5 6 7 7 8 8 9 9 9 10 10 14 11 7 13 18 23 25 27 27 29 25 25 27
25 19 17 15 14 14 14 13 12 11 9 8 8 7 5 4 3 2 2 4 4 4 6 9 10 11 11 11 10 9 10 12 10 9 11 17 19 24 23 20 21 22 21
23 19 18 16 15 15 14 14 13 12 11 11 11 8 6 5 4 2 1 1 2 2 4 6 8 11 12 13 11 9 8 9 9 6 6 9 12 20 21 21 18 16 19
24 21 18 16 15 16 15 15 14 14 14 14 12 11 9 6 4 3 2 1 1 3 5 6 7 8 10 11 12 11 8 6 3 4 3 5 6 11 16 20 17 14 15
23 20 19 17 16 17 16 15 15 16 15 13 14 13 11 8 5 3 3 2 1 1 1 3 4 5 6 7 7 8 9 8 3 3 1 3 5 8 6 16 14 12 9
Wind_Direction
214 211 200 205 211 218 243 273 358 18 19 9 1 353 345 341 339 337 334 324 324 314 309 306 305 304 301 294 289 291 287 271 260 257 258 253 250 248 243 243 242 243 239
211 204 202 208 215 222 244 330 26 14 7 358 354 351 347 338 340 343 332 332 316 315 317 321 320 319 318 315 310 302 294 288 282 268 254 255 254 246 247 243 241 239 242
205 197 204 209 211 221 248 9 2 6 1 356 356 353 343 360 355 349 358 345 327 319 318 313 311 309 309 309 311 312 303 297 299 282 278 267 253 253 243 245 242 240 239
198 197 205 210 209 216 238 298 336 354 355 356 1 349 353 355 8 5 353 342 322 314 309 306 307 309 308 307 304 306 310 315 304 300 291 274 262 250 251 242 241 241 239
196 195 201 207 213 221 251 303 331 347 360 1 9 7 7 12 22 359 338 326 325 321 316 313 310 310 310 307 310 312 311 311 304 299 292 284 268 254 248 250 244 240 241
196 195 196 205 211 225 250 299 326 348 2 14 26 21 9 30 10 344 331 334 327 320 316 313 314 314 326 326 314 312 317 311 308 304 299 290 285 270 258 250 247 242 237
196 195 198 203 209 224 262 305 334 355 5 23 38 44 74 233 317 340 352 344 340 334 338 337 352 347 335 332 329 321 323 323 325 319 311 293 283 273 268 262 251 246 245
197 195 199 204 209 219 253 291 338 2 9 29 26 34 88 252 322 312 342 349 4 6 356 6 356 344 339 336 332 325 330 337 336 331 326 302 293 275 264 267 261 249 245
196 196 198 199 204 210 244 297 357 16 23 38 40 43 9 329 336 338 354 3 15 14 13 3 349 343 351 349 343 335 338 343 337 331 328 309 304 289 269 268 261 254 248
194 195 197 194 199 211 233 341 3 13 38 37 36 36 33 7 7 328 358 21 30 30 13 14 345 339 348 352 352 347 341 348 343 338 326 318 302 299 281 267 259 256 249
190 192 192 193 198 206 205 273 19 30 32 34 38 36 19 9 4 353 329 6 45 46 30 349 337 333 345 352 352 351 347 350 346 338 330 326 312 299 281 267 268 262 253
190 189 189 190 194 199 188 135 48 33 32 28 30 23 14 14 4 5 339 357 10 43 17 325 340 338 342 352 351 351 351 354 353 348 339 326 317 313 295 280 265 270 257
190 188 187 187 196 184 197 154 78 40 38 28 25 21 15 4 355 0 1 355 354 354 354 322 334 347 346 348 348 351 352 357 358 357 347 333 322 315 295 290 270 273 246
190 186 183 194 185 188 183 184 169 47 37 30 22 16 10 360 355 353 357 4 4 341 341 316 328 351 350 349 344 349 352 357 360 4 3 355 344 2 22 304 279 268 272
188 185 188 191 188 173 185 204 196 127 50 29 11 7 4 2 355 5 10 11 1 336 315 304 343 344 349 352 351 351 357 360 5 10 14 14 9 11 18 316 281 274 252
187 189 193 185 174 195 200 198 205 200 133 338 356 6 6 7 7 18 15 29 360 317 298 329 331 337 348 1 13 11 12 10 15 19 24 20 21 17 15 53 111 187 205
187 195 192 168 215 203 202 202 202 195 218 258 305 14 11 17 28 33 35 38 27 5 352 323 321 335 348 356 359 6 11 13 19 23 26 31 30 24 16 21 49 95 121
189 201 164 207 209 200 199 196 204 205 213 226 226 54 26 48 54 49 39 31 32 20 6 323 335 337 346 348 350 359 9 12 16 21 24 26 32 39 32 23 25 44 75
198 194 186 208 204 198 196 196 205 209 216 212 215 189 117 85 65 57 47 39 36 15 4 340 331 343 349 357 352 352 3 14 17 24 29 30 35 39 43 48 50 43 39
205 166 203 205 200 196 197 200 207 212 210 206 207 195 177 108 76 63 54 48 45 36 25 17 18 13 16 23 20 23 10 5 20 27 35 36 36 44 45 45 46 46 49
195 194 207 197 198 199 203 204 208 212 209 205 203 201 182 128 80 68 63 54 51 48 43 37 33 31 19 19 23 29 28 357 6 25 32 37 37 40 44 46 45 44 43
203 200 205 202 201 204 211 213 210 209 212 206 206 205 184 142 116 85 69 58 50 55 52 52 51 43 30 17 14 20 32 25 10 20 26 32 32 39 48 45 46 54 48
203 201 209 201 200 208 214 214 217 213 213 211 214 209 198 183 164 114 73 55 43 37 44 49 46 47 42 31 24 27 28 24 31 26 20 34 31 40 39 50 55 59 65
204 204 204 195 200 212 214 214 213 209 216 215 211 208 204 196 181 170 120 60 32 40 52 43 37 34 32 29 27 23 17 10 11 3 355 36 33 39 35 40 53 71 68
207 207 203 204 211 219 217 216 211 211 213 212 208 207 203 198 193 201 212 272 342 15 38 39 35 33 24 20 23 20 9 355 357 36 36 9 355 356 12 37 46 55 63
211 211 208 212 221 222 223 216 208 209 207 207 209 204 200 199 204 222 230 251 288 344 25 44 33 32 26 25 24 29 35 34 44 44 57 24 343 341 335 26 29 48 58
Height
1520 1521 1522 1522 1522 1522 1523 1523 1522 1521 1520 1519 1518 1517 1515 1513 1511 1509 1507 1505 1503 1502 1502 1502 1501 1501 1500 1500 1499 1497 1495 1494 1496 1496 1495 1495 1497 1498 1500 1503 1505 1508 1510
1517 1519 1520 1520 1519 1520 1520 1520 1519 1519 1518 1517 1516 1515 1513 1511 1510 1508 1507 1505 1504 1502 1501 1500 1499 1498 1498 1496 1494 1491 1489 1488 1487 1486 1486 1487 1487 1489 1491 1493 1495 1498 1502
1513 1516 1517 1517 1517 1517 1517 1517 1517 1517 1517 1516 1514 1513 1511 1509 1507 1505 1505 1503 1503 1501 1500 1498 1497 1495 1494 1493 1489 1486 1484 1482 1480 1478 1477 1476 1476 1478 1480 1483 1485 1488 1492
1510 1511 1514 1514 1515 1515 1515 1515 1515 1515 1515 1514 1513 1511 1509 1508 1507 1505 1503 1502 1502 1499 1497 1495 1493 1491 1490 1488 1486 1482 1478 1476 1472 1471 1468 1466 1466 1466 1468 1471 1475 1478 1481
1507 1508 1510 1512 1512 1513 1512 1513 1513 1513 1512 1512 1510 1508 1507 1507 1506 1504 1503 1501 1499 1495 1494 1492 1490 1488 1485 1482 1480 1477 1473 1469 1464 1461 1458 1456 1455 1455 1457 1459 1462 1467 1470
1505 1506 1507 1509 1510 1511 1510 1510 1511 1511 1510 1510 1508 1507 1506 1506 1506 1504 1501 1498 1495 1493 1490 1488 1487 1484 1481 1478 1475 1472 1468 1463 1458 1453 1450 1448 1446 1444 1445 1447 1450 1453 1458
1503 1505 1505 1505 1507 1508 1508 1508 1509 1508 1508 1507 1506 1506 1505 1504 1504 1502 1500 1496 1493 1490 1487 1485 1483 1481 1479 1477 1473 1468 1462 1456 1450 1445 1443 1441 1438 1435 1436 1436 1437 1440 1445
1501 1503 1503 1504 1505 1505 1505 1505 1505 1504 1504 1504 1503 1501 1503 1505 1503 1500 1498 1494 1490 1487 1485 1484 1483 1481 1478 1474 1470 1465 1459 1451 1446 1441 1435 1434 1429 1426 1427 1427 1427 1429 1432
1498 1500 1501 1502 1502 1502 1502 1502 1501 1501 1501 1501 1500 1501 1500 1502 1499 1498 1496 1492 1488 1486 1484 1484 1481 1480 1476 1472 1467 1462 1456 1450 1443 1438 1432 1427 1423 1419 1417 1418 1418 1419 1422
1496 1497 1499 1499 1500 1500 1500 1499 1498 1499 1499 1497 1497 1498 1500 1501 1499 1497 1495 1491 1487 1485 1483 1482 1480 1478 1474 1470 1466 1461 1455 1447 1442 1435 1428 1422 1417 1412 1411 1410 1409 1410 1413
1493 1494 1496 1497 1497 1497 1497 1497 1497 1497 1497 1495 1495 1496 1496 1496 1496 1497 1492 1488 1486 1485 1483 1482 1480 1477 1473 1468 1463 1459 1452 1445 1439 1431 1424 1418 1412 1408 1405 1402 1402 1402 1404
1491 1492 1493 1494 1494 1494 1494 1495 1495 1495 1494 1493 1493 1494 1494 1494 1493 1494 1491 1487 1485 1485 1483 1482 1480 1476 1471 1467 1463 1458 1452 1445 1437 1429 1422 1416 1409 1404 1399 1396 1396 1395 1395
1487 1489 1491 1491 1492 1490 1492 1492 1493 1493 1492 1492 1492 1492 1492 1492 1492 1490 1489 1486 1485 1484 1484 1482 1480 1475 1470 1465 1462 1457 1451 1444 1436 1429 1421 1414 1407 1401 1395 1391 1389 1388 1387
1485 1487 1487 1489 1488 1489 1489 1490 1491 1490 1490 1491 1491 1490 1490 1491 1490 1488 1486 1484 1482 1485 1484 1482 1478 1474 1470 1465 1461 1456 1450 1444 1437 1430 1422 1415 1408 1401 1393 1390 1388 1385 1383
1483 1484 1486 1487 1487 1487 1488 1488 1489 1489 1490 1490 1489 1489 1490 1489 1489 1487 1484 1483 1483 1484 1483 1480 1476 1473 1469 1465 1461 1456 1451 1445 1438 1432 1424 1417 1410 1403 1394 1390 1387 1385 1383
1479 1482 1484 1483 1482 1486 1487 1487 1487 1488 1489 1489 1489 1489 1490 1489 1488 1486 1483 1482 1483 1483 1483 1478 1476 1473 1469 1465 1462 1457 1452 1446 1439 1433 1427 1419 1412 1407 1401 1393 1389 1385 1382
1474 1479 1480 1478 1483 1484 1485 1485 1487 1486 1487 1489 1488 1489 1489 1489 1487 1484 1482 1481 1482 1482 1481 1478 1476 1473 1469 1466 1463 1458 1454 1448 1441 1435 1428 1422 1418 1411 1405 1402 1396 1390 1382
1471 1475 1473 1479 1480 1481 1483 1484 1486 1485 1486 1487 1488 1488 1489 1489 1487 1483 1482 1481 1480 1480 1479 1477 1476 1473 1469 1465 1462 1458 1454 1450 1445 1438 1433 1426 1421 1416 1411 1406 1403 1399 1392
1469 1471 1472 1476 1477 1479 1481 1482 1484 1484 1485 1487 1488 1488 1489 1488 1486 1483 1482 1481 1481 1479 1477 1477 1475 1472 1469 1466 1463 1459 1456 1452 1447 1442 1437 1432 1426 1421 1416 1413 1409 1406 1402
1467 1464 1471 1473 1475 1476 1478 1480 1481 1482 1484 1486 1487 1489 1488 1487 1485 1484 1482 1482 1480 1478 1478 1476 1474 1472 1470 1467 1464 1460 1457 1454 1450 1445 1440 1435 1431 1427 1422 1417 1413 1410 1408
1461 1465 1468 1469 1472 1473 1477 1478 1479 1481 1483 1485 1486 1488 1487 1485 1484 1484 1482 1482 1480 1478 1478 1476 1474 1472 1470 1468 1464 1460 1457 1455 1452 1448 1444 1440 1436 1430 1426 1422 1420 1419 1414
1461 1462 1465 1466 1468 1471 1475 1477 1478 1479 1482 1483 1485 1487 1486 1483 1484 1483 1482 1481 1480 1480 1479 1477 1475 1472 1470 1468 1466 1462 1459 1457 1455 1451 1448 1444 1440 1436 1432 1432 1430 1426 1424
1457 1459 1463 1464 1466 1469 1473 1474 1477 1478 1480 1481 1483 1484 1484 1483 1482 1482 1482 1481 1481 1480 1479 1477 1476 1473 1471 1469 1466 1464 1462 1459 1457 1454 1451 1448 1446 1443 1441 1438 1436 1434 1431
1452 1457 1460 1461 1464 1467 1470 1473 1474 1476 1479 1479 1482 1483 1483 1482 1481 1481 1481 1481 1481 1480 1478 1477 1475 1473 1471 1469 1467 1465 1462 1460 1458 1456 1453 1451 1450 1447 1446 1442 1439 1437 1435
1449 1453 1457 1459 1462 1466 1468 1471 1472 1473 1476 1477 1479 1481 1480 1480 1479 1480 1480 1480 1480 1479 1478 1476 1475 1474 1472 1469 1466 1464 1463 1461 1459 1457 1455 1453 1451 1449 1448 1445 1443 1441 1439
1447 1451 1454 1457 1461 1464 1465 1468 1470 1472 1474 1476 1478 1478 1477 1477 1478 1479 1479 1479 1479 1479 1477 1477 1475 1474 1473 1470 1468 1466 1463 1461 1460 1458 1457 1456 1453 1451 1449 1447 1446 1444 1443